Location: Moscow
(55.7500°N, 37.5830°E)
Time: 22:41:23
(UTC+03:00)

COSMOS 2251 DEB - Pass Details

Date: 09 July 2022
Orbit: 738 x 847 km, 74.1° (Epoch: 17 August)

Event Time Altitude Azimuth Distance (km) Brightness Sun altitude
Rises 22:02:04 0° 295° (WNW) 3,286 ? -5.5°
Reaches altitude 10° 22:06:29 10° 329° (NNW) 2,329 ? -5.8°
Maximum altitude 22:08:07 11° 347° (NNW) 2,227 ? -6.0°
Drops below altitude 10° 22:09:44 10° 5° (N) 2,309 ? -6.1°
Sets 22:14:03 0° 40° (NE) 3,213 ? -6.4°
